Location: Cutler
(25.6150°N, 80.3110°W)
Time: 11:08:41
(UTC-05:00)

Vanguard 1 Rocket - Visible Passes

Search period start: 19 November 2017 00:00
Search period end: 29 November 2017 00:00
Orbit: 655 x 4222 km, 34.3° (Epoch: 18 November)

Date Brightness Start Highest point End Pass type
(mag) Time Alt. Az. Time Alt. Az. Time Alt. Az.
19 Nov 10.4 01:58:37 46° ENE 01:58:37 46° ENE 02:08:05 10° E visible
19 Nov 9.5 04:15:55 44° WNW 04:23:55 81° NNE 04:35:08 10° ESE visible
19 Nov 10.7 19:12:47 10° SSW 19:28:36 36° SE 19:36:04 31° ESE visible
19 Nov 10.5 21:37:05 10° SW 21:53:22 64° SW 21:53:22 64° SW visible
20 Nov 11.1 00:08:21 10° W 00:51:29 22° ENE 00:55:26 10° ENE visible
20 Nov 9.9 03:08:47 70° N 03:09:50 71° NNE 03:23:47 10° E visible
20 Nov 9.3 05:26:05 20° WNW 05:39:43 67° SW 05:48:59 10° SE visible
20 Nov 11.0 18:04:50 10° SSE 18:15:56 20° SE 18:29:07 12° E visible
20 Nov 10.3 20:25:16 10° SW 20:44:31 62° SE 20:46:25 61° SE visible
20 Nov 11.0 22:53:31 10° WSW 23:44:23 - ENE 23:03:44 37° WSW visible
21 Nov 10.4 02:01:41 49° ENE 02:01:41 49° ENE 02:11:43 10° E visible
21 Nov 9.5 04:18:59 45° WNW 04:27:10 89° SSW 04:38:34 10° ESE visible
21 Nov 10.5 19:14:46 10° SSW 19:30:46 44° SE 19:39:29 35° E visible
21 Nov 10.4 21:40:04 10° WSW 21:56:47 68° WSW 21:56:47 68° WSW visible
22 Nov 11.1 00:11:52 10° W 00:54:36 23° ENE 00:58:58 10° ENE visible
22 Nov 9.8 03:11:54 75° NNW 03:13:16 77° NNE 03:27:23 10° ESE visible
22 Nov 9.5 05:29:13 20° WNW 05:42:30 54° SW 05:51:59 10° SE visible
22 Nov 10.8 18:05:50 10° S 18:18:08 27° SE 18:32:31 14° E visible
22 Nov 10.2 20:27:58 10° SW 20:46:58 72° SE 20:49:49 68° ESE visible
22 Nov 11.0 22:56:54 10° W 23:47:33 - ENE 23:07:08 37° W visible
23 Nov 10.3 02:04:52 51° ENE 02:04:52 51° ENE 02:15:22 10° E visible
23 Nov 9.5 04:22:10 45° WNW 04:30:13 78° SSW 04:41:51 10° SE visible
23 Nov 10.3 19:17:06 10° SSW 19:33:00 53° SE 19:42:50 38° E visible
23 Nov 10.4 21:43:15 10° WSW 22:00:09 69° W 22:00:09 69° W visible
24 Nov 11.1 00:15:25 10° W 00:57:50 24° ENE 01:02:33 10° E visible
24 Nov 9.8 03:15:08 80° NNW 03:16:33 84° NNE 03:30:51 10° ESE visible
24 Nov 9.8 05:32:27 19° WNW 05:45:04 44° SW 05:54:44 10° SSE visible
24 Nov 10.6 18:07:32 10° S 18:20:17 34° SE 18:35:51 16° E visible
24 Nov 10.2 20:30:53 10° SW 20:49:36 81° SSE 20:53:09 72° E visible
24 Nov 11.1 23:00:24 10° W 23:50:50 - ENE 23:10:27 36° W visible
25 Nov 10.3 02:08:08 54° E 02:08:08 54° E 02:18:58 10° E visible
25 Nov 9.7 04:25:27 44° W 04:33:02 67° SW 04:44:58 10° SE visible
25 Nov 10.2 19:19:42 10° SW 19:35:22 63° SE 19:46:07 40° E visible
25 Nov 10.4 21:46:36 10° WSW 22:03:25 67° WNW 22:03:25 67° WNW visible
26 Nov 11.1 00:18:55 10° W 01:01:09 25° E 01:06:10 10° E visible
26 Nov 9.8 03:18:27 83° W 03:19:40 87° SSW 03:34:12 10° ESE visible
26 Nov 10.1 05:35:46 18° W 05:47:28 35° SW 05:57:10 10° SSE visible
26 Nov 10.3 18:09:42 10° SSW 18:22:30 42° SE 18:39:04 17° ENE visible
26 Nov 10.2 20:34:01 10° WSW 20:52:27 90° SE 20:56:22 73° ENE visible
26 Nov 11.1 23:03:58 10° W 23:54:11 - E 23:13:39 35° WNW visible
27 Nov 10.3 02:11:30 56° E 02:11:30 56° E 02:22:29 10° ESE visible
27 Nov 9.8 04:28:48 42° W 04:35:39 56° SW 04:47:50 10° SSE visible
27 Nov 10.1 19:22:33 10° SW 19:37:56 73° SE 19:49:16 41° ENE visible
27 Nov 10.5 21:50:05 10° W 22:06:34 64° WNW 22:06:34 64° WNW visible
28 Nov 11.1 00:22:21 10° WNW 01:04:32 26° E 01:09:46 10° E visible
28 Nov 9.9 03:21:51 76° SW 03:22:32 77° SSW 03:37:23 10° SE visible
28 Nov 10.4 05:39:09 16° W 05:49:44 27° SW 05:59:12 10° S visible
28 Nov 10.1 18:12:11 10° SSW 18:24:49 52° SE 18:42:08 18° ENE visible
28 Nov 10.2 20:37:20 10° WSW 20:55:29 82° NNW 20:59:26 71° NE visible
